Regional Weather Roundup
Issued by NWS

Home | Current Version | Previous Version | Text Only | Print | Product List | Glossary On
Versions: 1 2 3 4 5 6 7 8 9 10 11 12 13 14 15 16 17 18 19 20 21 22 23 24 25 26 27 28 29 30 31 32 33 34 35 36 37 38 39 40 41 42 43 44 45 46 47 48 49 50
230
ASCA44 KEWX 221820
RWRMX

LATIN AMERICA AND CARIBBEAN REGIONAL WEATHER ROUNDUP
NATIONAL WEATHER SERVICE AUSTIN/SAN ANTONIO TX
100 PM CDT FRI MAY 22 2015

NOTE: "FAIR" INDICATED FEW OR NO CLOUDS BELOW 12,000 FEET WITH NO
SIGNIFICANT WEATHER AND/OR OBSTRUCTIONS TO VISIBILITY.

BAJA CALIFORNIA

CITY           SKY/WX    TMP DP  RH WIND       PRES   REMARKS
LORETO         MOSUNNY   75  66  73 NE8       29.96S
LA PAZ         MOSUNNY   84  41  21 N9        29.98S
MEXICALI       SUNNY     70  39  32 W22       29.94S
S.J. DEL CABO  MOSUNNY   90  57  33 SE16      29.95F
TIJUANA        PTSUNNY   64  45  48 W12       30.07S

NORTHWESTERN MEXICO

CITY           SKY/WX    TMP DP  RH WIND       PRES   REMARKS
CULIACAN       CLOUDY    91  52  25 CALM      29.94S
DURANGO        SUNNY     77  46  33 S3        30.30F
GUAYMAS        SUNNY     81  57  44 W14       29.92F
HERMOSILLO     MOSUNNY   84  45  24 SE5       29.99F
CD. JUAREZ     SUNNY     77  39  25 CALM      30.00F
LOS MOCHIS     CLOUDY    86  39  19 CALM      29.96S
OBREGON        MOSUNNY   86  37  17 NW8       29.93F

NORTHEASTERN MEXICO

CITY           SKY/WX    TMP DP  RH WIND       PRES   REMARKS
CHIHUAHUA      MOSUNNY   86  36  16 S21       30.08F
MATAMOROS      PTSUNNY   88  77  70 SE14      30.03R HX 100
MONCLOVA         N/A    N/A N/A N/A MISG        N/A
MONTERREY      PTSUNNY   81  66  61 SE9       30.04S
NUEVO LAREDO   PTSUNNY   86  72  62 SE12      30.02F HX  92
PIEDRAS NEGRAS CLOUDY    75  70  83 SE6       30.06S FOG
REYNOSA        PTSUNNY   84  70  61 SE6       30.03S
SALTILLO       PTSUNNY   75  63  64 N6        30.22F
TORREON        PTSUNNY   84  59  42 NE6       30.13F
CD. VICTORIA   PTSUNNY   84  68  58 S16       30.04S

WESTERN MEXICO

CITY           SKY/WX    TMP DP  RH WIND       PRES   REMARKS
AGUASCALIENTES SUNNY     72  43  35 S6        30.33F
COLIMA         MOSUNNY   84  68  58 NE9       30.05F
DEL BAJIO      PTSUNNY   73  54  49 S9        30.35F
GUADALAJARA    MOSUNNY   81  52  36 NE6       30.24F
MANZANILLO     MOSUNNY   88  77  70 SE12      29.90F HX 100
MAZATLAN       MOSUNNY   86  61  42 S7        29.91F
P. VALLARTA      N/A    N/A N/A N/A MISG        N/A
URUAPAN          N/A    N/A N/A N/A MISG        N/A
ZACATECAS      MOSUNNY   75  45  33 S10       30.34F

CENTRAL MEXICO

CITY           SKY/WX    TMP DP  RH WIND       PRES   REMARKS
CUERNAVACA     CLOUDY    75  59  57 SE6       30.24F
MEXICO CITY    PTSUNNY   66  50  55 CALM      30.42F
MORELIA        CLOUDY    72  54  53 W6        30.30F
POZA RICA      CLOUDY    77  73  88 S5        30.03F
PUEBLA         PTSUNNY   68  52  56 S13       30.41F
QUERETARO      PTSUNNY   70  54  56 E6        30.36F
S. LUIS POTOSI PTSUNNY   70  52  52 W3        30.30F
TAMPICO        PTSUNNY   82  75  78 E13       30.06R
TOLUCA         PTSUNNY   66  45  45 SE5       30.49S

SOUTHERN MEXICO

CITY           SKY/WX    TMP DP  RH WIND       PRES   REMARKS
ACAPULCO       CLOUDY    90  66  45 NE10      29.91F HX  92
B. DE HUATULCO MOSUNNY   91  84  79 SW12      29.95F HX 118
OAXACA         PTSUNNY   75  55  50 W6        30.28F
P. ESCONDIDO   MOSUNNY   86  75  70 SW7       30.03F HX  95
VERACRUZ       PTSUNNY   91  64  40 E7        30.00F HX  93
ZIHUATANEJO    PTSUNNY   90  77  66 W8        29.94S HX 102

YUCATAN PENINSULA

CITY           SKY/WX    TMP DP  RH WIND       PRES   REMARKS
CAMPECHE       MOSUNNY   93  70  46 E12       29.96F HX  99
CANCUN         MOSUNNY   88  72  58 SE14      30.07S HX  94
CHETUMAL       MOSUNNY   88  75  66 E7        30.01F HX  97
CD. DEL CARMEN PTSUNNY   91  70  49 E10       29.98F HX  97
COZUMEL        MOSUNNY   88  72  58 SE5G16    30.06F HX  94
MERIDA         PTSUNNY   97  66  36 NE6       30.02F HX 100
MINATITLAN     PTSUNNY   86  68  54 N12       29.95F
TAPACHULA      MOSUNNY   91  75  59 CALM      29.92F HX 102
TUX. GUTIERREZ CLOUDY    84  66  54 NW6       30.02F
VILLAHERMOSA   CLOUDY    90  73  58 NW5       30.00F HX  98

CENTRAL AMERICA

CITY           SKY/WX    TMP DP  RH WIND       PRES   REMARKS
BELIZE CITY    MOSUNNY   88  77  70 E10       30.01S HX 100
MANAGUA        MOCLDY    90  73  58 E12       29.86S HX  98

CARIBBEAN

CITY           SKY/WX    TMP DP  RH WIND       PRES   REMARKS
ARUBA          MOSUNNY   88  77  70 E23       29.94S HX 100
CURACAO        MOSUNNY   86  73  66 E17       29.97F HX  93
KINGSTON       MOSUNNY   88  77  70 SE22      30.00S HX 100
NASSAU         MOSUNNY   86  73  66 SW6       30.11S HX  93
SAN JUAN       MOSUNNY   90  73  58 E22       30.07F HX  98
SANTO DOMINGO  MOSUNNY   90  73  58 S9        30.06S HX  98
ST. CROIX      MOSUNNY   88  73  62 SE14      30.09  HX  96
ST. KITTS      MOSUNNY   86  75  70 E17       30.09S HX  95
ST. MAARTEN    MOSUNNY   86  72  62 E13       30.09S HX  92
ST. THOMAS     CLOUDY    86  73  66 SE16G23   30.09  HX  93

$$




USA.gov is the U.S. government's official web portal to all federal, state and local government web resources and services.